[[{"header":{"parameterUnit":"m.s-1","parameterCategory":1,"la1":30.2991,"la2":30.254,"lo1":-89.0895,"lo2":-89.0444,"dy":0.0017,"dx":0.0017,"nx":28,"ny":28,"refTime":"2024-06-21T09:00:00:Z","depth":0,"parameterNumber":2,"parameterNumberName":"U-component_of_WINDS"},"data":[0,0,0,0,0,0,0,0,0,0,0,0,0,0,0,0,0,0,0,0,0,0,0,0,0,0,0,0,0,0,0,0,0,0,0,0,0,0,0,0,0,0,0,0,0,0,0,0,0,0,0,0,0,0,0,0,0,0,0.2641,0.2641,0,0.2643,0.2643,0.2643,0.267,0.2671,0.2672,0.2673,0.2671,0.267,0.267,0,0,0,0,0,0,0,0,0,0,0,0,0,0.2661,0.266,0.2641,0.2641,0.2641,0.2643,0.2643,0.2643,0.267,0.2671,0.2672,0.2673,0.2671,0.267,0.267,0,0,0,0,0,0,0,0,0,0,0,0,0,0.2656,0.266,0.2641,0.2655,0.2657,0.2643,0.2643,0.2643,0.267,0.2671,0.2672,0.2673,0.2672,0.2671,0.2669,0.2641,0,0,0.2666,0.2666,0,0,0,0,0,0,0,0,0.2656,0.2655,0.2653,0.2654,0.2656,0.2658,0.2649,0.2642,0.267,0.2665,0.2673,0.2674,0.2665,0.2665,0.2663,0.2641,0.2641,0.2666,0.2665,0.2665,0.2665,0,0,0,0,0,0,0,0.2657,0.2655,0.2642,0.2653,0.2655,0.2661,0.2662,0.2648,0.2659,0.2665,0.2667,0.2667,0.2666,0.2664,0.2663,0.2641,0.2666,0.2665,0.2664,0.2664,0.2597,0.2595,0,0,0,0,0,0,0.2655,0.2656,0.2642,0.2642,0.2659,0.266,0.266,0.2656,0.2659,0.2661,0.2666,0.2669,0.2665,0.2664,0.2663,0.263,0.2665,0.2664,0.2663,0.2598,0.2596,0.2595,0,0,0,0,0,0,0.2656,0.2654,0.2641,0.2649,0.2648,0.2658,0.2653,0.2655,0.2653,0.266,0.2662,0.2662,0.2666,0.2664,0.2647,0.263,0.2663,0.2662,0.2599,0.2597,0.2596,0.2563,0,0,0,0,0,0,0.2656,0.2654,0.2643,0.2649,0.2648,0.2625,0.2652,0.2654,0.2651,0.2654,0.2656,0.2658,0.2667,0.2648,0.2646,0.2629,0.2662,0.26,0.2598,0.2596,0.2566,0.256,0.2556,0,0,0,0,0,0.2657,0.2633,0.2643,0.2641,0.2635,0.2624,0.2624,0.2635,0.265,0.2639,0.2644,0.2657,0.2633,0.2646,0.2643,0.2626,0.2602,0.2599,0.2596,0.2568,0.2561,0.2556,0,0,0,0,0,0,0.2624,0.2634,0.2644,0.2622,0.2622,0.2629,0.2616,0.2628,0.2623,0.2626,0.264,0.2641,0.262,0.2622,0.2636,0.26,0.262,0.2616,0.2599,0.2593,0.2588,0.2587,0.2661,0,0,0,0,0,0.2614,0.2606,0.2615,0.2594,0.2594,0.2605,0.2601,0.261,0.261,0.261,0.2614,0.2613,0.2605,0.2599,0.2593,0.2567,0.2567,0.2554,0.2549,0.2545,0.2542,0.2528,0.2522,0.2587,0.2587,0.2587,0,0,0.2594,0.2598,0.2592,0.2588,0.2589,0.2579,0.2605,0.2593,0.2586,0.2608,0.2591,0.2595,0.2595,0.2573,0.2563,0.2573,0.2525,0.2542,0.2539,0.2537,0.2525,0.2519,0.2513,0.2585,0.2585,0.2585,0,0,0.2551,0.2554,0.2537,0.2539,0.2541,0.2549,0.2545,0.255,0.2553,0.2537,0.2554,0.2546,0.2532,0.2531,0.2529,0.2489,0.2501,0.2486,0.246,0.2447,0.2442,0.2437,0.2422,0.2417,0.2483,0.2483,0.2483,0,0.2524,0.2511,0.2527,0.2514,0.2512,0.2534,0.2517,0.2517,0.2517,0.2514,0.2526,0.251,0.2512,0.249,0.2481,0.2479,0.2474,0.2485,0.2442,0.2437,0.2433,0.2419,0.2413,0.2481,0.2481,0.2482,0.2482,0,0.2478,0.2469,0.2455,0.2455,0.2452,0.2437,0.245,0.2445,0.2455,0.2462,0.2445,0.2449,0.2443,0.2439,0.2448,0.2419,0.2425,0.2439,0.2459,0.2425,0.2412,0.2406,0.2478,0.2479,0.248,0.248,0,0,0.2411,0.2423,0.2417,0.2418,0.2423,0.2416,0.2403,0.2399,0.2393,0.2393,0.2381,0.2371,0.2384,0.2382,0.2392,0.2381,0.2348,0.2396,0.2396,0.2386,0.2315,0.2303,0.2296,0.2357,0.2356,0.2355,0.2314,0,0.2369,0.2347,0.2362,0.2338,0.2329,0.2351,0.234,0.2342,0.2348,0.2341,0.2348,0.234,0.2359,0.2358,0.2348,0.2354,0.2333,0.2357,0.2345,0.2345,0.2342,0.2289,0.2276,0.2237,0.2309,0.2309,0.2308,0,0.2316,0.2315,0.229,0.2298,0.2295,0.2284,0.2282,0.2276,0.2279,0.2284,0.2283,0.2296,0.2284,0.2306,0.2288,0.2304,0.23,0.2303,0.2302,0.2299,0.2322,0.2284,0.2225,0.2219,0.23,0.2301,0.2301,0,0.2269,0.2261,0.2245,0.2245,0.2254,0.2246,0.225,0.2254,0.2251,0.2249,0.2247,0.2244,0.2242,0.2239,0.2251,0.2266,0.2231,0.2254,0.2235,0.2234,0.2224,0.2224,0.2162,0.2225,0.2225,0.2225,0.2225,0,0.2219,0.2202,0.2224,0.2214,0.2196,0.2214,0.2196,0.2201,0.2205,0.2196,0.2216,0.2207,0.2225,0.2218,0.2228,0.2211,0.221,0.2214,0.2216,0.2211,0.221,0.2207,0.2209,0.2224,0.2224,0.2224,0.2225,0,0.2161,0.2175,0.2159,0.217,0.2173,0.2159,0.2168,0.2159,0.2169,0.2157,0.2156,0.2169,0.2162,0.2175,0.2169,0.2176,0.2153,0.216,0.2152,0.2153,0.2132,0.2133,0.2064,0.2056,0.2126,0.2125,0.2125,0,0.2127,0.2115,0.2126,0.2122,0.2124,0.2118,0.2115,0.2133,0.213,0.2134,0.2124,0.2119,0.2116,0.2103,0.2112,0.2108,0.2115,0.2091,0.2114,0.2109,0.2113,0.2112,0.2111,0.2085,0.2084,0.2084,0.2083,0,0.2065,0.2073,0.2069,0.2068,0.2065,0.2065,0.2066,0.2062,0.2081,0.2076,0.207,0.2068,0.2063,0.2058,0.2056,0.2059,0.2074,0.2077,0.2072,0.2065,0.206,0.2061,0.2137,0.2077,0.2078,0.2078,0.2079,0.2079,0.2017,0.2007,0.2014,0.2009,0.2013,0.2014,0.2006,0.2015,0.2011,0.2009,0.202,0.2011,0.2016,0.2016,0.2018,0.2011,0.2021,0.2014,0.2012,0.2009,0.2005,0.2063,0.2011,0.2011,0.2011,0.2011,0.2011,0,0.1954,0.196,0.1956,0.1958,0.1955,0.1972,0.1974,0.197,0.1962,0.1966,0.1963,0.1956,0.1952,0.1962,0.1958,0.1951,0.1958,0.1949,0.1949,0.1949,0.1997,0.2001,0.1944,0.1944,0.1944,0.1944,0.1944,0.1944,0.1921,0.1906,0.1915,0.1902,0.1909,0.1901,0.1901,0.1902,0.1905,0.1897,0.1894,0.1901,0.1907,0.1905,0.1902,0.1905,0.1902,0.1891,0.1896,0.194,0.1946,0.1952,0.1956,0.1891,0.1891,0.1849,0.1849,0.1848]},{"header":{"parameterUnit":"m.s-1","parameterCategory":1,"la1":30.2991,"la2":30.254,"lo1":-89.0895,"lo2":-89.0444,"dy":0.0017,"dx":0.0017,"nx":28,"ny":28,"refTime":"2024-06-21T09:00:00:Z","depth":0,"parameterNumber":3,"parameterNumberName":"V-component_of_WINDS"},"data":[0,0,0,0,0,0,0,0,0,0,0,0,0,0,0,0,0,0,0,0,0,0,0,0,0,0,0,0,0,0,0,0,0,0,0,0,0,0,0,0,0,0,0,0,0,0,0,0,0,0,0,0,0,0,0,0,0,0,-2.2117,-2.2118,0,-2.2189,-2.219,-2.2191,-2.2205,-2.2204,-2.2204,-2.2203,-2.2274,-2.2277,-2.2279,0,0,0,0,0,0,0,0,0,0,0,0,0,-2.199,-2.1992,-2.2117,-2.2118,-2.2119,-2.2189,-2.219,-2.2191,-2.2205,-2.2204,-2.2203,-2.2203,-2.2274,-2.2277,-2.2279,0,0,0,0,0,0,0,0,0,0,0,0,0,-2.2052,-2.1993,-2.2117,-2.2134,-2.2137,-2.2189,-2.219,-2.2191,-2.2205,-2.2204,-2.2203,-2.2202,-2.2273,-2.2276,-2.228,-2.2319,0,0,-2.2291,-2.2293,0,0,0,0,0,0,0,0,-2.2048,-2.2056,-2.2131,-2.2133,-2.2136,-2.2187,-2.2171,-2.2234,-2.2205,-2.2179,-2.2203,-2.2202,-2.2246,-2.2252,-2.2267,-2.2322,-2.2325,-2.2291,-2.2293,-2.2295,-2.2296,0,0,0,0,0,0,0,-2.2044,-2.2053,-2.2145,-2.2132,-2.2135,-2.2138,-2.2146,-2.2183,-2.2216,-2.2181,-2.2182,-2.2191,-2.2247,-2.2263,-2.2269,-2.2326,-2.2291,-2.2294,-2.2297,-2.2298,-2.2418,-2.2418,0,0,0,0,0,0,-2.2037,-2.205,-2.2143,-2.2148,-2.2089,-2.2141,-2.215,-2.2171,-2.2216,-2.2222,-2.2191,-2.2191,-2.2258,-2.2264,-2.2271,-2.232,-2.2295,-2.2298,-2.23,-2.2417,-2.2418,-2.2419,0,0,0,0,0,0,-2.2034,-2.2045,-2.214,-2.2099,-2.2111,-2.2144,-2.2168,-2.2173,-2.219,-2.2224,-2.2229,-2.2202,-2.2257,-2.2266,-2.2307,-2.2322,-2.23,-2.2303,-2.2415,-2.2417,-2.2418,-2.2417,0,0,0,0,0,0,-2.203,-2.2044,-2.2059,-2.2099,-2.2113,-2.2175,-2.2169,-2.2175,-2.2196,-2.2196,-2.2235,-2.2241,-2.2257,-2.2302,-2.2311,-2.2327,-2.2306,-2.2414,-2.2416,-2.2418,-2.2416,-2.2418,-2.242,0,0,0,0,0,-2.2026,-2.2056,-2.206,-2.2071,-2.2134,-2.2176,-2.2184,-2.2203,-2.2197,-2.2213,-2.2235,-2.224,-2.232,-2.2306,-2.2316,-2.2334,-2.2413,-2.2415,-2.2418,-2.2415,-2.2418,-2.242,0,0,0,0,0,0,-2.2016,-2.2061,-2.2066,-2.2111,-2.214,-2.2178,-2.2199,-2.2206,-2.2237,-2.2235,-2.2257,-2.2266,-2.2305,-2.2324,-2.2308,-2.2374,-2.2366,-2.237,-2.236,-2.2363,-2.2366,-2.236,-2.2309,0,0,0,0,0,-2.2019,-2.205,-2.2088,-2.2123,-2.2137,-2.2166,-2.2185,-2.2197,-2.2228,-2.224,-2.2265,-2.2294,-2.2325,-2.2346,-2.2377,-2.2419,-2.2427,-2.2436,-2.2439,-2.244,-2.2443,-2.2467,-2.2471,-2.2426,-2.2426,-2.2426,0,0,-2.2025,-2.2054,-2.2072,-2.2122,-2.2146,-2.2177,-2.2176,-2.2209,-2.2232,-2.2245,-2.2285,-2.2304,-2.2338,-2.238,-2.2399,-2.2396,-2.2458,-2.2443,-2.2444,-2.2446,-2.247,-2.2474,-2.2478,-2.2428,-2.2427,-2.2427,0,0,-2.2052,-2.2078,-2.211,-2.2134,-2.2171,-2.2189,-2.2197,-2.2235,-2.2249,-2.229,-2.23,-2.2328,-2.2382,-2.2406,-2.2425,-2.2462,-2.2467,-2.2472,-2.2483,-2.2506,-2.2509,-2.2512,-2.2525,-2.2529,-2.2475,-2.2475,-2.2475,0,-2.2055,-2.2104,-2.2125,-2.2158,-2.2179,-2.2193,-2.2225,-2.2248,-2.2292,-2.2306,-2.2303,-2.2371,-2.2395,-2.2442,-2.2451,-2.2467,-2.2476,-2.2466,-2.2507,-2.251,-2.2514,-2.2526,-2.2531,-2.2475,-2.2475,-2.2475,-2.2475,0,-2.2105,-2.2138,-2.216,-2.2203,-2.2227,-2.2259,-2.2285,-2.2307,-2.2318,-2.2336,-2.2378,-2.2407,-2.2444,-2.2457,-2.2467,-2.2506,-2.2503,-2.2503,-2.2495,-2.2518,-2.253,-2.2535,-2.2475,-2.2475,-2.2475,-2.2475,0,0,-2.2127,-2.2183,-2.219,-2.221,-2.2252,-2.2278,-2.2311,-2.2348,-2.2366,-2.2396,-2.2424,-2.247,-2.2471,-2.2492,-2.2506,-2.2526,-2.2553,-2.2523,-2.2525,-2.2527,-2.2596,-2.2595,-2.26,-2.2557,-2.2558,-2.2559,-2.2593,0,-2.2158,-2.2218,-2.2239,-2.2288,-2.2319,-2.2333,-2.2362,-2.239,-2.2409,-2.2438,-2.2458,-2.249,-2.2489,-2.2502,-2.2523,-2.2545,-2.2567,-2.2543,-2.2582,-2.2583,-2.2572,-2.2607,-2.2605,-2.2636,-2.2598,-2.2599,-2.26,0,-2.2203,-2.2235,-2.2287,-2.2326,-2.2339,-2.2365,-2.2401,-2.2428,-2.2461,-2.2473,-2.2498,-2.251,-2.2544,-2.2536,-2.2583,-2.2567,-2.2584,-2.2598,-2.2599,-2.2602,-2.2592,-2.261,-2.2647,-2.2651,-2.2607,-2.2607,-2.2606,0,-2.2212,-2.2269,-2.2307,-2.2324,-2.237,-2.2387,-2.2407,-2.2439,-2.246,-2.2492,-2.2506,-2.254,-2.2559,-2.2586,-2.2606,-2.2598,-2.2652,-2.2645,-2.2662,-2.2662,-2.2672,-2.2671,-2.2711,-2.2685,-2.2685,-2.2685,-2.2685,0,-2.2245,-2.2276,-2.2312,-2.2336,-2.2371,-2.2395,-2.2429,-2.245,-2.2478,-2.2506,-2.252,-2.2546,-2.2572,-2.2601,-2.2618,-2.2654,-2.2663,-2.2673,-2.2677,-2.2671,-2.267,-2.2682,-2.268,-2.2686,-2.2686,-2.2685,-2.2685,0,-2.226,-2.2286,-2.2329,-2.237,-2.2381,-2.2405,-2.2439,-2.2462,-2.2482,-2.2517,-2.2527,-2.2558,-2.2592,-2.2616,-2.2661,-2.2672,-2.2711,-2.2715,-2.27,-2.2702,-2.2717,-2.2715,-2.2766,-2.2773,-2.2743,-2.2744,-2.2744,0,-2.2279,-2.2303,-2.2347,-2.2367,-2.2387,-2.2419,-2.2441,-2.2465,-2.2487,-2.2526,-2.2545,-2.2581,-2.2611,-2.2665,-2.2691,-2.2726,-2.273,-2.2745,-2.2735,-2.2728,-2.2729,-2.2727,-2.2729,-2.2746,-2.2747,-2.2747,-2.2747,0,-2.2308,-2.232,-2.2352,-2.2388,-2.2414,-2.2443,-2.2473,-2.2488,-2.2517,-2.2541,-2.2578,-2.2601,-2.2647,-2.2682,-2.2719,-2.2739,-2.2747,-2.275,-2.2756,-2.275,-2.274,-2.2744,-2.2703,-2.2749,-2.2748,-2.2748,-2.2748,-2.2748,-2.2325,-2.2348,-2.2382,-2.2417,-2.2442,-2.2469,-2.2493,-2.2517,-2.2547,-2.2587,-2.26,-2.2637,-2.2669,-2.272,-2.274,-2.2769,-2.2768,-2.2776,-2.2778,-2.278,-2.2779,-2.2736,-2.2776,-2.2776,-2.2776,-2.2776,-2.2776,0,-2.2355,-2.2378,-2.241,-2.2451,-2.2478,-2.2486,-2.2519,-2.2541,-2.2574,-2.2604,-2.2633,-2.2675,-2.2709,-2.2739,-2.2774,-2.2792,-2.2797,-2.28,-2.2798,-2.2803,-2.2779,-2.277,-2.2796,-2.2796,-2.2796,-2.2796,-2.2796,-2.2796,-2.2374,-2.2412,-2.2428,-2.2479,-2.2501,-2.2539,-2.2557,-2.2582,-2.2606,-2.2652,-2.2681,-2.27,-2.273,-2.2768,-2.28,-2.2808,-2.2819,-2.2822,-2.283,-2.2807,-2.2804,-2.2802,-2.2794,-2.2825,-2.2825,-2.2852,-2.2852,-2.2852]}]]